Orange City, IA

7:44 PM CST on February 19, 2017 (GMT -0600)
Orange City Municipal

Weather History for KORC - December, 2013

Change the Weather History Date:

Saturday, December 7, 2013

  Actual Average Record
Temperature  
Mean Temperature -4 °F -  
Max Temperature 6 °F 34 °F 48 °F (1949)
Min Temperature -13 °F 20 °F -13 °F (2013)
Degree Days  
Heating Degree Days 68    
Moisture  
Dew Point -10 °F    
Average Humidity 73    
Maximum Humidity 85    
Minimum Humidity 66    
Precipitation  
Precipitation 0.00 in - - ()
Sea Level Pressure  
Sea Level Pressure 30.58 in    
Wind  
Wind Speed 3 mph (NNW)    
Max Wind Speed 9 mph    
Max Gust Speed -    
Visibility 9 miles    
Events Snow    
Averages and records for this station are not official NWS values.
T = Trace of Precipitation, MM = Missing Value Source: NWS Daily Summary

Daily Weather History Graph

Daily Weather History Graph

Search for Another Location

Airport or City:

Trip Planner

Search our weather history database for the weather conditions in past years. The results will help you decide how hot, cold, wet, or windy it might be!

Date:

Astronomy

Dec. 07, 2013 Rise Set
Actual Time 7:42 AM CST 4:49 PM CST
Civil Twilight 7:10 AM CST 5:21 PM CST
Nautical Twilight 6:34 AM CST 5:57 PM CST
Astronomical Twilight 6:00 AM CST 6:31 PM CST
Moon 11:22 AM CST (12/7) 10:38 PM CST (12/7)
Length of Visible Light 10h 11m
Length of Day
9h 07m
Waxing Crescent, 29% of the Moon is Illuminated
Dec 7
Waxing Crescent
Dec 9
First Quarter
Dec 17
Full
Dec 25
Last Quarter
Jan 1
New

Hourly Weather History & Observations

Time (CST) Temp. Windchill Dew Point Humidity Pressure Visibility Wind Dir Wind Speed Gust Speed Precip Events Conditions
12:15 AM -9.4 °F -20.9 °F -14.8 °F 77% 30.63 in 10.0 mi NW 4.6 mph - N/A   Clear
12:35 AM -7.6 °F - -14.8 °F 71% 30.63 in 10.0 mi Calm Calm - N/A   Clear
12:55 AM -7.6 °F -20.6 °F -13.0 °F 77% 30.63 in 10.0 mi NW 5.8 mph - N/A   Clear
1:15 AM -7.6 °F - -13.0 °F 77% 30.64 in 10.0 mi Calm Calm - N/A   Clear
1:35 AM -7.6 °F -18.8 °F -13.0 °F 77% 30.64 in 10.0 mi NW 4.6 mph - N/A   Clear
1:55 AM -7.6 °F -20.6 °F -14.8 °F 71% 30.64 in 10.0 mi NW 5.8 mph - N/A   Clear
2:15 AM -7.6 °F -18.8 °F -14.8 °F 71% 30.64 in 10.0 mi NNW 4.6 mph - N/A   Clear
2:35 AM -9.4 °F -18.6 °F -16.6 °F 71% 30.65 in 10.0 mi WNW 3.5 mph - N/A   Clear
2:55 AM -11.2 °F - -16.6 °F 77% 30.65 in 10.0 mi Calm Calm - N/A   Clear
3:15 AM -9.4 °F -20.9 °F -16.6 °F 71% 30.65 in 10.0 mi NW 4.6 mph - N/A   Clear
3:35 AM -9.4 °F - -16.6 °F 71% 30.65 in 10.0 mi Calm Calm - N/A   Clear
3:55 AM -11.2 °F - -16.6 °F 77% 30.65 in 10.0 mi Calm Calm - N/A   Clear
4:15 AM -11.2 °F - -16.6 °F 77% 30.65 in 10.0 mi Calm Calm - N/A   Clear
4:35 AM -11.2 °F - -16.6 °F 77% 30.64 in 10.0 mi Calm Calm - N/A   Clear
4:55 AM -11.2 °F - -16.6 °F 77% 30.65 in 7.0 mi Calm Calm - N/A   Clear
5:15 AM -11.2 °F -20.6 °F -16.6 °F 77% 30.65 in 10.0 mi West 3.5 mph - N/A   Clear
5:35 AM -11.2 °F -23.0 °F -16.6 °F 77% 30.64 in 10.0 mi NW 4.6 mph - N/A   Clear
5:55 AM -11.2 °F - -16.6 °F 77% 30.64 in 10.0 mi Calm Calm - N/A   Clear
6:15 AM -11.2 °F -20.6 °F -16.6 °F 77% 30.64 in 10.0 mi WNW 3.5 mph - N/A   Clear
6:35 AM -11.2 °F -20.6 °F -16.6 °F 77% 30.65 in 10.0 mi WNW 3.5 mph - N/A   Clear
6:55 AM -11.2 °F -23.0 °F -18.4 °F 70% 30.65 in 10.0 mi NW 4.6 mph - N/A   Clear
7:15 AM -11.2 °F -23.0 °F -18.4 °F 70% 30.65 in 10.0 mi NW 4.6 mph - N/A   Clear
7:35 AM -11.2 °F -20.6 °F -16.6 °F 77% 30.65 in 10.0 mi WNW 3.5 mph - N/A   Clear
7:55 AM -13.0 °F -22.7 °F -18.4 °F 77% 30.66 in 10.0 mi WNW 3.5 mph - N/A   Clear
8:15 AM -11.2 °F -23.0 °F -18.4 °F 70% 30.65 in 10.0 mi NW 4.6 mph - N/A   Clear
8:35 AM -11.2 °F - -16.6 °F 77% 30.66 in 4.0 mi Calm Calm - N/A   Haze
8:55 AM -11.2 °F -20.6 °F -16.6 °F 77% 30.67 in 10.0 mi WNW 3.5 mph - N/A   Clear
9:15 AM -9.4 °F - -14.8 °F 77% 30.67 in 10.0 mi Calm Calm - N/A   Clear
9:35 AM -9.4 °F -18.6 °F -14.8 °F 77% 30.68 in 10.0 mi WSW 3.5 mph - N/A   Clear
9:55 AM -7.6 °F - -13.0 °F 77% 30.68 in 10.0 mi Calm Calm - N/A   Clear
10:15 AM -5.8 °F -14.5 °F -11.2 °F 77% 30.68 in 10.0 mi WNW 3.5 mph - N/A   Clear
10:35 AM -4.0 °F -14.6 °F -9.4 °F 78% 30.68 in 10.0 mi WSW 4.6 mph - N/A   Clear
10:55 AM -2.2 °F -12.5 °F -9.4 °F 71% 30.67 in 10.0 mi West 4.6 mph - N/A   Clear
11:15 AM -2.2 °F -14.2 °F -9.4 °F 71% 30.66 in 10.0 mi West 5.8 mph - N/A   Clear
11:35 AM -0.4 °F -10.4 °F -7.6 °F 72% 30.65 in 10.0 mi West 4.6 mph - N/A   Clear
11:55 AM -0.4 °F -10.4 °F -7.6 °F 72% 30.63 in 10.0 mi NW 4.6 mph - N/A   Clear
12:15 PM 1.4 °F - -7.6 °F 66% 30.63 in 10.0 mi Calm Calm - N/A   Clear
12:35 PM 1.4 °F -6.2 °F -7.6 °F 66% 30.62 in 10.0 mi WSW 3.5 mph - N/A   Clear
12:55 PM 1.4 °F - -7.6 °F 66% 30.61 in 10.0 mi Calm Calm - N/A   Clear
1:15 PM 3.2 °F -4.2 °F -5.8 °F 66% 30.61 in 10.0 mi West 3.5 mph - N/A   Clear
1:35 PM 3.2 °F -6.2 °F -5.8 °F 66% 30.61 in 10.0 mi SW 4.6 mph - N/A   Clear
1:55 PM 3.2 °F -7.8 °F -5.8 °F 66% 30.60 in 10.0 mi West 5.8 mph - N/A   Clear
2:15 PM 3.2 °F -6.2 °F -5.8 °F 66% 30.59 in 10.0 mi WNW 4.6 mph - N/A   Clear
2:35 PM 3.2 °F -4.2 °F -5.8 °F 66% 30.59 in 10.0 mi WNW 3.5 mph - N/A   Clear
2:55 PM 3.2 °F - -5.8 °F 66% 30.57 in 10.0 mi Calm Calm - N/A   Clear
3:15 PM 3.2 °F - -5.8 °F 66% 30.56 in 10.0 mi Calm Calm - N/A   Clear
3:35 PM 3.2 °F -4.2 °F -5.8 °F 66% 30.55 in 10.0 mi NNW 3.5 mph - N/A   Clear
3:55 PM 3.2 °F - -5.8 °F 66% 30.54 in 10.0 mi Calm Calm - N/A   Clear
4:15 PM 3.2 °F -4.2 °F -5.8 °F 66% 30.54 in 10.0 mi NNE 3.5 mph - N/A   Clear
4:35 PM 3.2 °F - -5.8 °F 66% 30.52 in 10.0 mi Calm Calm - N/A   Clear
4:55 PM 1.4 °F - -5.8 °F 72% 30.51 in 10.0 mi Calm Calm - N/A   Clear
5:15 PM 1.4 °F -6.2 °F -5.8 °F 72% 30.50 in 10.0 mi ENE 3.5 mph - N/A   Clear
5:35 PM 1.4 °F -8.3 °F -5.8 °F 72% 30.50 in 10.0 mi NE 4.6 mph - N/A   Clear
5:55 PM 1.4 °F -6.2 °F -5.8 °F 72% 30.50 in 10.0 mi NE 3.5 mph - N/A   Clear
6:15 PM 1.4 °F -8.3 °F -5.8 °F 72% 30.50 in 10.0 mi NE 4.6 mph - N/A   Clear
6:35 PM 1.4 °F -8.3 °F -5.8 °F 72% 30.49 in 10.0 mi ENE 4.6 mph - N/A   Clear
6:55 PM 1.4 °F -9.9 °F -5.8 °F 72% 30.49 in 10.0 mi ENE 5.8 mph - N/A   Clear
7:15 PM 1.4 °F -8.3 °F -5.8 °F 72% 30.49 in 10.0 mi ENE 4.6 mph - N/A   Scattered Clouds
7:35 PM 1.4 °F -6.2 °F -5.8 °F 72% 30.49 in 10.0 mi ENE 3.5 mph - N/A   Mostly Cloudy
7:55 PM 1.4 °F -8.3 °F -5.8 °F 72% 30.49 in 10.0 mi ENE 4.6 mph - N/A   Overcast
8:15 PM 3.2 °F -6.2 °F -5.8 °F 66% 30.50 in 10.0 mi East 4.6 mph - N/A   Overcast
8:35 PM 3.2 °F -6.2 °F -4.0 °F 72% 30.49 in 3.0 mi East 4.6 mph - N/A Snow Light Snow
8:55 PM 3.2 °F -7.8 °F -2.2 °F 78% 30.48 in 3.0 mi East 5.8 mph - N/A Snow Light Snow
9:15 PM 3.2 °F -7.8 °F -2.2 °F 78% 30.48 in 2.0 mi East 5.8 mph - N/A Snow Light Snow
9:35 PM 3.2 °F -7.8 °F -2.2 °F 78% 30.48 in 2.0 mi East 5.8 mph - N/A Snow Light Snow
9:55 PM 3.2 °F -7.8 °F -2.2 °F 78% 30.47 in 2.5 mi East 5.8 mph - N/A Snow Light Snow
10:15 PM 3.2 °F -9.1 °F -0.4 °F 85% 30.46 in 4.0 mi East 6.9 mph - N/A Snow Light Snow
10:35 PM 3.2 °F -9.1 °F -0.4 °F 85% 30.44 in 2.5 mi East 6.9 mph - N/A Snow Light Snow
10:55 PM 5.0 °F -9.1 °F -0.4 °F 78% 30.43 in 5.0 mi ESE 9.2 mph - N/A Snow Light Snow
11:15 PM 6.8 °F -5.9 °F 1.4 °F 79% 30.42 in 3.0 mi ESE 8.1 mph - N/A Snow Light Snow
11:35 PM 6.8 °F -5.9 °F 1.4 °F 79% 30.41 in 4.0 mi ESE 8.1 mph - N/A Snow Light Snow
11:55 PM 6.8 °F -4.8 °F 1.4 °F 79% 30.39 in 4.0 mi ESE 6.9 mph - N/A Snow Light Snow